Theta_e
335 335 334 334 333 333 333 333 333 333 333 333 334 333 335 333 332 332 332 333 334 333 335 335 335 335 335 335 335 334 333 333 332 332 332 330 330 330 330 329 330 331
335 335 335 335 333 334 335 335 334 334 334 335 334 334 334 333 332 331 330 332 332 332 332 332 335 334 333 333 335 332 332 332 329 332 331 329 328 330 330 329 329 332
332 332 333 333 333 333 334 334 333 334 333 332 333 334 332 333 333 332 332 330 331 331 332 334 334 332 332 334 332 333 331 330 330 330 331 330 330 329 330 331 330 331
330 331 331 332 333 333 333 332 333 332 332 330 330 331 331 332 332 331 331 331 330 331 331 332 331 332 334 333 333 331 332 330 331 331 329 329 328 329 329 330 330 330
329 330 331 331 332 333 333 332 332 333 332 331 332 332 331 331 331 329 328 330 331 331 330 330 334 332 330 332 333 330 330 330 330 329 327 327 329 329 329 330 329 329
329 328 330 330 331 331 332 332 331 331 331 331 331 331 331 331 329 329 330 330 330 330 330 330 331 333 334 333 331 330 330 329 329 330 327 326 329 330 332 331 330 329
327 328 329 330 331 331 331 331 331 331 332 332 332 331 330 329 329 330 330 330 329 331 331 329 329 331 332 332 331 329 329 328 329 328 328 328 328 329 332 331 330 329
326 327 328 329 330 331 330 330 330 331 331 331 330 331 331 331 330 330 329 330 331 331 330 330 330 331 331 331 330 329 329 330 328 327 329 327 327 328 330 331 331 329
326 326 328 330 330 330 330 331 330 330 331 330 330 331 331 330 331 331 331 329 329 330 326 328 327 330 329 331 330 329 330 330 330 330 328 327 326 326 327 329 329 327
324 326 328 328 328 328 329 329 330 330 331 330 330 330 329 330 330 330 330 329 329 329 330 330 328 329 330 330 331 329 330 329 328 328 328 329 329 328 328 328 325 325
324 325 326 325 327 327 328 328 329 329 330 329 330 328 328 330 330 330 329 329 329 330 329 329 330 328 330 329 330 330 330 330 330 329 329 330 327 328 327 327 327 327
322 321 321 321 323 324 324 326 327 327 328 328 329 327 328 330 330 329 329 329 329 329 330 328 329 331 330 329 329 330 331 331 330 330 330 329 330 330 330 331 330 330
319 319 319 319 320 321 322 322 323 325 326 326 328 327 327 327 328 328 328 329 328 327 328 329 327 325 325 329 329 329 330 330 330 330 330 329 328 329 330 330 329 328
317 318 318 318 319 319 319 319 319 320 320 323 324 325 326 327 326 327 327 327 326 327 326 323 318 314 312 312 318 328 328 328 330 329 329 329 329 330 330 329 327 328
317 317 317 317 316 316 316 316 316 316 316 318 320 322 324 325 326 327 326 326 326 324 318 315 313 310 306 305 308 314 325 326 327 327 327 327 328 330 329 329 330 330
315 315 315 315 315 314 314 314 313 313 313 313 314 316 317 320 321 322 320 317 316 316 315 312 308 305 301 298 300 305 312 323 328 327 327 327 326 325 328 329 327 325
314 314 314 314 314 313 313 312 312 311 311 311 311 311 312 313 315 317 316 315 313 312 310 309 305 300 296 295 296 298 308 321 329 329 326 324 325 325 325 327 326 324
314 313 313 313 313 312 312 311 310 310 309 309 310 309 309 309 309 311 312 312 311 311 308 306 304 297 294 296 296 297 301 321 324 323 324 326 327 326 324 326 326 324
313 312 312 312 312 312 311 310 309 308 307 307 307 309 308 307 307 307 307 308 308 307 305 304 301 295 294 296 299 303 306 316 323 323 322 320 320 321 323 326 325 326
312 312 312 312 311 311 310 309 308 307 307 306 306 307 306 306 306 305 305 305 306 306 304 302 298 295 294 296 297 300 304 311 319 319 318 315 313 312 313 316 323 323
311 311 311 311 311 310 309 308 307 306 306 305 305 304 304 304 304 303 303 303 304 306 303 302 298 293 293 295 296 299 303 308 317 317 316 313 311 309 308 307 313 323
311 311 310 310 310 309 308 307 306 306 305 305 304 304 304 304 303 303 301 301 301 302 302 300 299 293 293 294 295 296 304 315 316 315 314 313 310 308 306 305 305 310
310 310 309 309 308 307 306 306 306 306 306 306 304 303 303 303 302 301 301 300 300 300 300 300 298 294 292 293 294 295 306 315 314 313 312 310 309 308 306 304 303 304
309 309 308 307 306 306 305 305 306 306 306 306 304 303 302 302 302 301 301 300 299 299 299 299 298 295 292 293 294 294 303 312 311 310 309 308 307 307 306 305 303 300
308 307 306 305 304 303 304 304 305 306 306 306 305 304 303 302 302 301 300 300 300 299 300 299 299 296 293 292 293 293 302 311 310 308 306 305 306 305 304 303 303 300
307 305 304 303 302 302 302 302 303 303 303 304 304 303 302 302 301 300 299 299 300 300 299 299 298 298 295 292 292 293 295 306 309 307 304 304 303 303 301 301 300 299
Wind_Speed
7 7 6 6 5 6 7 7 7 8 7 6 5 6 6 5 5 5 7 9 10 8 8 7 9 7 6 5 6 7 8 8 7 6 7 6 6 7 8 9 6 5
8 8 7 7 6 6 5 7 8 8 8 7 5 5 7 3 4 5 7 9 6 5 8 10 8 4 7 7 7 7 6 6 6 4 5 8 7 7 7 8 8 4
8 9 9 9 9 10 9 8 9 7 6 8 8 7 7 5 6 5 5 6 7 7 9 9 6 5 9 6 7 8 7 7 8 8 6 7 5 6 5 6 6 7
9 9 9 10 9 9 8 8 8 6 6 7 7 7 7 7 7 7 5 7 8 6 7 8 9 8 6 5 5 3 4 5 7 9 6 5 5 4 5 5 5 5
8 7 8 9 9 8 7 7 7 6 7 7 7 7 7 7 7 6 5 8 8 6 5 9 7 2 6 6 3 4 5 5 4 5 7 5 4 6 6 5 6 7
8 9 9 9 9 9 8 8 8 8 8 7 8 8 7 7 7 6 5 4 7 7 8 7 7 4 4 4 4 4 4 3 3 4 7 5 5 5 5 5 6 6
8 8 8 9 9 10 9 8 7 7 7 7 7 6 6 6 7 7 5 4 7 8 6 6 8 4 4 2 4 5 4 3 4 3 5 3 3 5 4 5 5 7
9 8 8 9 9 8 8 7 7 8 7 7 7 7 6 7 6 5 5 4 2 4 3 4 1 3 3 3 4 3 3 5 6 6 6 8 5 3 4 5 7 8
8 8 9 9 9 7 9 9 8 7 7 7 8 8 7 6 5 5 3 4 4 2 2 4 2 4 3 4 4 5 5 4 3 4 6 6 6 4 4 4 3 5
9 8 8 10 10 8 9 8 8 7 7 8 7 6 7 6 4 6 6 5 5 4 2 1 2 3 4 3 4 2 2 3 3 3 3 3 4 5 5 5 7 9
9 10 11 12 10 9 11 10 10 9 7 8 8 8 8 7 6 7 7 7 4 5 3 3 1 3 3 1 1 1 1 1 1 2 3 2 4 5 8 9 9 7
9 10 11 12 12 11 12 10 9 10 8 8 9 9 9 8 7 7 7 8 8 7 3 1 5 4 3 3 1 2 0 0 1 0 1 2 2 2 1 1 1 1
10 10 10 10 9 10 10 11 11 11 10 10 9 10 10 10 9 9 9 8 8 8 6 6 9 9 7 5 2 3 2 1 0 0 0 1 0 1 1 0 4 6
9 9 9 9 9 10 11 11 12 12 12 11 10 10 11 9 7 8 7 8 7 7 10 10 10 10 9 8 9 4 3 4 3 3 2 1 1 1 1 5 2 1
8 8 8 9 11 11 12 12 12 12 12 12 12 11 9 10 10 10 9 7 7 10 11 9 8 7 7 7 6 9 8 5 4 4 5 3 2 2 6 4 3 3
9 8 9 10 11 11 12 12 12 11 12 13 13 13 12 12 11 12 13 13 11 10 10 10 7 6 12 14 10 5 6 7 5 4 4 6 8 5 3 3 4 5
9 10 10 11 11 11 11 12 12 11 11 12 11 12 13 12 11 12 12 12 12 9 9 8 7 9 16 14 14 12 7 7 4 2 6 8 4 2 0 2 4 5
10 11 11 11 11 12 12 11 11 11 12 11 11 12 12 12 13 12 11 11 11 8 9 9 9 16 19 17 14 11 7 7 11 10 10 8 6 1 4 4 4 2
11 11 11 11 12 12 11 11 11 12 12 12 12 10 11 13 13 13 11 12 12 12 12 10 10 19 19 18 16 16 18 13 9 10 10 10 10 8 7 4 4 5
12 12 12 12 12 11 11 11 11 12 12 11 11 11 12 12 12 13 13 13 11 8 9 9 11 19 18 18 17 15 15 13 10 10 11 11 11 9 9 9 6 6
12 11 11 12 12 11 11 11 11 11 12 11 10 10 11 11 11 12 12 12 11 10 12 12 11 22 20 21 18 15 14 12 10 10 10 11 11 11 10 11 10 8
12 11 11 12 12 11 11 11 11 11 11 9 9 9 9 9 9 10 12 13 11 12 13 14 12 23 21 23 21 17 13 9 8 10 10 11 12 12 12 9 11 10
12 13 12 12 12 12 12 12 11 10 10 8 9 9 9 10 10 10 10 11 13 13 14 13 14 20 24 23 21 21 11 8 9 9 10 11 11 11 11 11 11 10
12 12 12 12 12 12 12 11 9 8 9 8 9 10 11 10 9 9 11 12 14 13 12 11 12 19 24 22 22 22 13 9 7 8 10 10 10 10 9 10 13 20
11 11 12 12 12 12 11 12 10 9 7 8 8 9 9 9 9 10 10 11 12 12 19 14 10 18 24 23 23 23 16 10 10 9 11 10 8 9 10 10 10 12
9 10 10 11 11 11 11 10 9 9 10 9 9 9 9 9 9 10 11 11 11 11 12 13 13 14 20 24 24 23 21 12 10 10 10 10 10 9 9 9 9 10
Wind_Direction
333 330 325 324 319 315 310 308 313 315 315 315 315 297 288 271 271 279 290 285 269 277 285 253 245 233 221 207 202 202 206 204 186 184 183 178 186 199 203 186 195 184
338 332 329 326 315 311 317 322 318 324 325 321 317 300 296 292 253 266 269 277 272 280 296 301 265 239 243 219 202 205 199 180 194 203 185 189 190 205 190 181 200 177
341 338 335 328 327 325 329 333 333 340 331 325 318 306 306 288 292 275 299 290 272 246 249 243 253 267 246 219 210 204 205 191 179 188 195 174 166 183 171 179 188 190
341 333 328 328 330 328 335 339 341 338 328 318 315 309 303 299 296 300 289 275 276 270 263 263 256 235 226 223 199 207 192 193 178 168 165 118 173 199 194 178 181 193
330 327 330 329 328 324 336 343 336 341 326 318 317 311 303 308 305 305 310 294 280 274 287 275 254 254 250 232 179 178 183 187 162 125 127 158 182 185 192 187 192 201
337 333 334 334 330 333 340 341 348 340 336 336 325 315 310 300 293 292 291 289 294 293 273 282 296 262 216 171 165 191 168 164 113 130 142 177 183 186 173 178 199 209
340 335 338 333 332 339 339 344 353 341 338 328 311 323 321 302 293 294 299 290 286 286 279 245 249 235 242 158 173 168 171 161 157 174 161 142 169 175 170 175 208 214
345 342 337 337 336 343 345 348 347 348 342 331 328 327 316 314 296 289 283 291 310 270 337 317 295 261 192 209 181 164 169 179 172 188 171 169 191 181 168 185 204 211
347 342 340 340 343 348 350 353 351 341 346 345 339 335 341 341 335 311 306 355 11 47 0 264 248 223 229 211 194 181 182 170 157 173 158 157 164 173 204 218 221 236
351 341 352 354 351 351 354 350 348 341 352 353 348 342 350 335 339 0 349 358 15 2 284 50 224 297 207 201 197 166 192 157 165 158 151 162 152 162 196 201 203 220
2 1 5 359 355 2 2 359 1 357 5 1 359 360 352 347 4 16 14 1 6 54 31 333 266 233 280 223 134 103 225 170 174 157 149 156 118 179 192 214 209 223
12 13 10 5 7 8 2 3 6 6 10 13 8 2 2 2 11 20 16 24 31 49 101 14 341 342 19 345 250 166 257 152 119 167 142 138 133 113 112 50 13 4
21 14 12 10 7 6 3 3 6 5 9 16 8 9 13 12 19 30 24 33 41 34 23 36 33 18 0 351 349 51 17 8 29 15 343 37 31 169 134 131 57 68
22 16 14 12 11 14 12 10 10 10 8 8 8 12 15 15 20 27 25 30 25 46 41 34 32 22 3 1 351 359 36 351 334 333 279 215 214 150 105 80 105 91
21 15 18 19 19 20 20 19 18 15 12 11 12 12 16 16 20 21 15 34 42 44 43 34 32 25 13 350 346 348 346 339 333 330 329 299 330 31 50 69 103 79
22 20 23 22 23 24 25 24 22 20 20 19 15 16 18 18 23 32 33 29 33 33 36 33 25 19 352 353 11 0 322 319 329 325 322 57 47 10 12 68 89 75
30 29 28 30 28 28 29 27 25 23 22 21 20 21 20 21 23 34 40 34 26 26 26 27 29 5 352 1 2 354 341 322 331 5 55 79 102 254 154 39 63 62
30 28 31 33 33 32 32 32 29 27 24 23 22 25 25 27 27 26 33 33 27 20 19 21 21 0 359 359 3 8 11 18 40 41 38 33 30 353 325 35 33 47
32 31 32 34 34 33 33 33 32 33 30 24 24 26 30 32 29 28 26 25 30 25 16 10 17 5 356 6 15 47 53 56 47 48 48 44 46 47 49 36 40 33
37 34 36 37 36 34 35 33 33 35 34 31 28 29 32 30 28 29 26 24 26 20 15 10 26 1 355 15 16 23 50 56 52 54 57 52 42 39 39 25 41 83
38 37 37 39 38 36 37 37 35 36 37 35 31 27 29 30 26 28 26 23 15 17 25 22 18 6 5 16 14 20 36 56 59 57 60 54 49 41 39 29 15 49
40 40 41 40 40 39 38 38 38 37 38 35 35 34 31 33 34 34 31 28 22 20 24 18 13 11 11 17 12 5 26 48 55 60 55 56 51 42 40 31 30 23
41 45 43 40 38 39 38 37 35 34 38 34 37 34 32 35 35 34 31 31 30 28 25 23 21 11 17 17 12 9 17 34 45 56 57 58 54 54 49 39 29 19
39 41 42 40 38 38 38 37 37 38 38 34 40 38 35 31 34 35 36 34 33 31 21 21 20 16 19 16 17 16 14 38 42 60 61 55 55 51 57 52 35 31
45 41 43 45 42 39 36 34 29 31 43 38 41 47 45 41 36 38 38 37 32 32 27 23 16 22 20 20 22 20 17 29 29 40 45 39 39 41 42 42 36 33
49 47 46 45 46 44 42 40 34 31 28 34 35 38 45 44 41 41 43 40 36 33 35 28 27 29 24 24 26 24 19 24 28 36 40 37 39 32 35 41 36 33